Vertical_Velocity
7 1 26 -4 20 12 -4 10 3 8 5 6 1 4 3 -0 -1 -1 1 3 1 -1 0 0 2 0 0 1 -0 1 1 -0 -2 2 -1 0 -1 -3 -2 -2 -0 -3 0
4 -19 9 -18 -24 25 35 13 4 4 7 8 2 0 2 -0 -1 -2 -1 -0 -0 -1 -1 -3 3 0 -0 -2 -2 1 1 0 1 -2 1 -0 -0 -0 -0 -2 -1 -2 -2
-4 -10 -12 -8 -18 -19 11 86 16 -4 11 7 2 -1 -1 0 0 -2 2 1 1 1 2 -1 1 1 -0 -1 1 1 0 -0 0 2 2 0 -1 -2 -1 -1 -2 -1 -0
-3 10 11 -3 49 -10 -16 16 43 18 14 -6 9 10 -0 -1 1 -1 4 2 -1 2 2 1 1 0 3 -0 -1 2 0 -1 0 2 1 0 0 1 -0 -0 -1 -0 -1
4 2 4 -4 -4 2 -10 2 32 12 10 9 49 9 18 3 1 3 -2 2 -0 3 0 0 -2 -1 3 0 -1 -0 -0 1 -0 -1 1 -0 1 -0 0 -2 -1 -2 -0
-3 1 -5 -7 -3 7 -13 -11 4 15 -1 -22 -5 9 22 -13 -2 8 2 -4 2 1 1 1 2 -3 1 1 2 -0 -1 -2 -2 -2 -1 -0 3 -0 -1 -1 -1 -1 -0
-4 -5 -7 1 -9 -14 9 -12 -16 -5 1 13 29 -16 0 0 14 7 1 5 10 2 2 3 4 2 1 1 2 2 1 -1 -0 0 -1 3 0 -1 -3 0 -1 -0 -2
4 -2 1 -3 -1 -1 -8 2 9 0 6 -16 72 -23 -8 -2 1 -10 15 10 7 5 3 3 1 1 -1 1 -2 1 0 2 -1 -1 -1 -0 -1 -3 -1 1 -1 -1 -2
-1 -0 3 1 -2 4 -3 6 7 -6 -2 -1 12 9 -10 -9 37 -4 -11 12 11 12 5 -19 6 2 -1 -1 -3 0 2 -0 1 4 -1 -2 -0 -1 -2 -1 3 -2 -1
1 4 0 -1 3 -1 4 2 -0 1 -5 2 17 20 -23 18 8 -10 -5 73 8 14 66 7 0 -0 0 0 1 2 -3 2 0 3 2 1 -2 -2 -2 -0 -1 -2 -4
3 2 5 -3 -0 1 4 5 -1 1 -1 -2 3 10 9 2 1 -7 -0 42 49 36 40 -2 -1 3 1 -1 3 2 2 -3 1 1 2 2 -2 -1 0 -1 -4 -3 -0
3 2 1 -1 -3 -1 0 1 9 -0 2 0 -1 -3 2 16 14 17 17 3 14 0 20 21 11 3 -1 2 -1 3 2 1 -1 2 1 -0 2 -1 0 -1 -1 -3 -1
4 2 0 1 2 -3 1 3 1 0 3 2 5 5 1 4 3 6 3 13 9 21 -5 -15 3 9 1 1 -13 4 -7 -0 1 -0 5 1 2 1 -3 -3 -1 -2 -1
-0 3 5 3 -2 -4 2 2 -0 1 -2 0 0 -3 2 4 2 7 12 4 10 4 9 13 4 5 1 5 1 -7 -5 1 -0 3 -2 3 4 -3 1 -1 0 0 1
-2 -0 3 1 -2 3 4 5 -1 -1 -1 0 1 0 -0 1 -2 2 6 3 -2 -2 8 5 5 6 11 -0 3 3 4 1 -3 -1 2 1 2 -2 1 -2 0 2 -2
1 2 2 -1 1 2 -0 -1 -0 0 1 2 -3 0 2 1 3 1 7 0 -0 8 -6 1 4 2 7 8 8 6 2 -3 -3 0 4 3 2 1 -0 -1 0 -1 1
-0 -2 -1 0 0 0 -1 -1 -0 1 5 -4 -2 1 1 0 -1 -2 -3 3 -1 -1 4 8 -4 -2 3 1 1 5 8 5 1 4 1 0 2 -1 1 1 0 -1 -0
3 -4 -2 4 -2 -3 -3 -4 -2 0 2 -3 -1 -1 -2 -3 1 -3 -1 2 1 -1 4 4 2 -0 3 3 -3 1 4 3 1 -1 -1 0 3 0 3 1 -4 -3 -1
-0 0 -1 1 -3 -2 -1 -3 0 -0 -1 -4 -5 -0 2 5 3 -3 -0 2 2 2 -1 -3 -1 2 4 3 -1 3 3 1 5 4 4 -0 1 0 -3 -0 0 -2 -4
6 1 2 -3 -4 -1 -1 -3 -2 -1 -3 -2 -0 2 -0 1 1 0 0 -2 -2 -1 1 -1 0 1 3 1 4 -4 2 -3 -1 0 1 2 3 -2 -3 3 0 -1 0
-1 -6 -3 -2 -2 -0 -2 -3 -3 0 2 0 -0 -3 -3 0 0 -3 -1 -2 -0 3 1 -4 -3 -0 2 -1 -1 -6 -5 -0 -7 -1 -3 -3 1 1 -4 0 2 1 -3
-3 -4 -5 -5 -6 -6 -4 -8 4 -2 1 0 -1 -1 -1 -1 -1 -0 0 0 -1 2 -1 -1 1 -3 -0 -1 -1 0 -0 -4 -4 -1 -7 -1 0 2 5 -0 -0 -2 1
-4 -3 -3 -0 -2 -4 -3 4 4 -5 -4 2 -1 -2 -1 -1 -3 -1 -0 -1 0 2 2 -0 1 0 -3 1 2 0 -4 -2 -0 -2 -3 1 1 1 1 0 -1 -1 -3
-1 -1 -3 -1 -0 0 -1 -0 -3 -2 -3 -3 -1 -2 -3 0 1 -0 -0 0 -1 -1 -1 -1 0 -3 -1 1 4 4 0 -2 -1 -1 0 -0 -3 -0 2 1 5 -0 -1
-0 1 2 2 0 -1 -2 -0 2 3 1 2 1 2 -1 -5 5 2 -1 0 -2 -1 -1 -1 0 -2 1 0 -1 -1 -0 2 1 -1 -0 2 -3 -4 -0 -1 1 7 5
-3 -2 -1 -1 0 1 -1 -1 -4 -1 -2 -2 -0 2 -1 -2 -1 -1 0 1 -1 -2 -1 -1 2 3 1 0 1 -1 -1 1 1 -2 -2 1 -0 2 2 -2 -1 -0 3
Height
3025 3026 3030 3044 3055 3060 3066 3077 3085 3094 3099 3105 3110 3115 3120 3125 3130 3135 3140 3144 3148 3153 3156 3159 3162 3164 3167 3170 3173 3176 3179 3181 3182 3184 3185 3186 3187 3188 3187 3188 3188 3187 3186
3019 3021 3027 3033 3043 3036 3057 3068 3077 3083 3090 3098 3103 3108 3113 3118 3123 3128 3133 3138 3142 3146 3151 3154 3157 3159 3162 3165 3168 3171 3174 3177 3179 3180 3181 3183 3184 3185 3185 3185 3185 3184 3183
3015 3020 3025 3028 3033 3038 3047 3045 3059 3071 3076 3087 3093 3099 3106 3112 3116 3121 3127 3132 3136 3141 3145 3149 3152 3154 3157 3160 3164 3166 3168 3171 3173 3175 3176 3178 3179 3180 3181 3181 3181 3180 3180
3007 3012 3018 3024 3027 3036 3040 3044 3045 3056 3062 3071 3079 3089 3096 3103 3109 3114 3119 3124 3129 3134 3139 3143 3145 3148 3152 3155 3158 3160 3162 3165 3167 3170 3171 3172 3174 3175 3176 3176 3176 3176 3175
3001 3005 3009 3015 3020 3029 3034 3038 3041 3046 3055 3059 3063 3076 3085 3091 3099 3105 3110 3116 3122 3127 3131 3136 3139 3143 3146 3149 3152 3154 3156 3158 3161 3164 3166 3167 3168 3169 3170 3170 3170 3170 3170
2994 2997 3002 3009 3014 3021 3026 3032 3038 3043 3048 3053 3057 3063 3072 3080 3091 3096 3102 3108 3113 3117 3123 3128 3132 3136 3139 3142 3145 3147 3150 3152 3155 3157 3158 3160 3161 3163 3163 3164 3165 3165 3164
2988 2994 2998 3004 3009 3016 3019 3025 3032 3037 3039 3045 3045 3054 3061 3072 3077 3086 3093 3098 3104 3109 3114 3119 3123 3127 3131 3134 3137 3139 3142 3145 3147 3149 3151 3153 3154 3155 3156 3157 3158 3158 3158
2983 2988 2993 2999 3003 3009 3015 3020 3023 3028 3032 3034 3039 3045 3050 3059 3064 3070 3082 3088 3094 3099 3104 3109 3113 3117 3121 3124 3127 3130 3134 3136 3139 3141 3143 3144 3145 3146 3148 3150 3150 3150 3151
2978 2982 2986 2991 2998 3001 3007 3010 3013 3017 3021 3026 3031 3036 3041 3046 3055 3060 3068 3077 3082 3088 3093 3095 3101 3105 3109 3114 3118 3121 3124 3128 3130 3132 3134 3135 3136 3139 3140 3141 3141 3142 3143
2973 2976 2980 2984 2988 2994 2998 3003 3007 3012 3016 3021 3021 3024 3033 3036 3044 3050 3057 3059 3068 3071 3068 3085 3089 3094 3099 3105 3108 3111 3114 3119 3121 3122 3124 3126 3128 3129 3131 3132 3132 3133 3133
2967 2970 2973 2977 2981 2984 2988 2993 2999 3005 3009 3013 3016 3019 3024 3031 3036 3040 3047 3052 3051 3050 3063 3071 3078 3083 3088 3093 3098 3100 3104 3109 3111 3113 3115 3116 3118 3120 3122 3122 3122 3123 3124
2962 2965 2967 2970 2975 2978 2981 2985 2990 2994 2998 3003 3008 3013 3019 3023 3028 3032 3037 3039 3042 3044 3055 3062 3067 3072 3076 3080 3085 3089 3093 3097 3100 3102 3104 3106 3107 3109 3111 3111 3112 3113 3114
2957 2960 2963 2965 2968 2971 2975 2977 2982 2986 2989 2994 2999 3003 3008 3012 3018 3022 3027 3029 3035 3039 3042 3047 3051 3059 3064 3067 3071 3077 3082 3086 3088 3090 3093 3095 3096 3099 3100 3100 3102 3103 3103
2951 2953 2955 2957 2960 2966 2969 2971 2974 2978 2982 2985 2990 2995 3000 3003 3008 3013 3017 3021 3023 3028 3032 3037 3041 3046 3051 3055 3060 3065 3070 3073 3076 3079 3080 3083 3085 3087 3089 3090 3092 3092 3093
2946 2947 2949 2951 2955 2959 2961 2963 2966 2971 2975 2979 2981 2986 2990 2994 2999 3003 3007 3010 3014 3019 3022 3025 3029 3035 3038 3042 3048 3052 3056 3059 3064 3067 3069 3071 3073 3075 3077 3079 3080 3082 3082
2943 2943 2943 2945 2948 2950 2953 2956 2960 2963 2967 2970 2974 2978 2981 2985 2989 2992 2997 3001 3007 3011 3015 3020 3020 3026 3026 3031 3035 3040 3042 3047 3050 3054 3055 3058 3060 3063 3065 3066 3068 3070 3072
2939 2939 2940 2940 2940 2942 2945 2949 2952 2956 2959 2962 2966 2971 2973 2976 2979 2984 2988 2991 2995 3001 3005 3007 3011 3016 3018 3021 3024 3027 3030 3033 3037 3040 3043 3046 3048 3050 3052 3054 3055 3057 3059
2935 2935 2935 2935 2935 2937 2939 2942 2945 2948 2950 2953 2958 2961 2965 2968 2971 2974 2978 2982 2986 2989 2993 2995 3000 3004 3008 3009 3012 3016 3019 3022 3025 3028 3030 3033 3035 3037 3038 3039 3041 3043 3044
2930 2930 2931 2930 2931 2933 2934 2937 2939 2941 2943 2946 2949 2952 2955 2957 2960 2964 2968 2971 2974 2978 2981 2984 2990 2994 2996 2997 3001 3004 3007 3009 3012 3015 3017 3020 3021 3023 3025 3026 3027 3028 3029
2923 2922 2923 2924 2926 2927 2929 2931 2933 2935 2936 2939 2941 2942 2945 2948 2950 2953 2956 2959 2964 2968 2971 2973 2977 2980 2984 2986 2989 2992 2994 2997 3000 3002 3005 3007 3009 3009 3011 3011 3012 3014 3015
2915 2916 2917 2919 2921 2922 2923 2926 2927 2927 2928 2929 2931 2933 2935 2939 2941 2944 2947 2950 2953 2955 2957 2960 2964 2966 2968 2971 2974 2977 2980 2982 2985 2988 2990 2993 2995 2995 2996 2997 2996 2997 2999
2908 2908 2909 2911 2912 2915 2916 2920 2920 2920 2921 2922 2923 2925 2927 2930 2932 2935 2939 2941 2943 2945 2947 2950 2952 2954 2958 2960 2962 2965 2967 2970 2973 2975 2978 2980 2982 2982 2982 2982 2982 2982 2984
2900 2900 2901 2902 2903 2905 2908 2912 2908 2911 2913 2915 2916 2917 2919 2922 2924 2926 2928 2931 2933 2935 2937 2939 2941 2942 2945 2948 2950 2952 2954 2957 2958 2961 2963 2965 2966 2968 2967 2967 2967 2968 2969
2893 2893 2894 2895 2896 2897 2897 2899 2900 2903 2904 2906 2909 2910 2911 2913 2916 2918 2919 2920 2922 2924 2927 2929 2931 2933 2935 2937 2938 2940 2943 2945 2947 2948 2950 2951 2952 2953 2953 2953 2953 2954 2955
2885 2885 2885 2886 2886 2887 2888 2889 2890 2892 2894 2896 2898 2900 2901 2904 2906 2907 2909 2911 2912 2914 2916 2919 2922 2924 2925 2926 2928 2929 2932 2934 2935 2936 2938 2939 2940 2940 2940 2940 2941 2941 2940
2877 2877 2877 2877 2878 2878 2879 2880 2881 2883 2884 2886 2888 2889 2891 2894 2896 2897 2898 2900 2902 2905 2907 2909 2911 2913 2915 2916 2917 2919 2921 2922 2924 2925 2926 2927 2928 2929 2929 2929 2929 2929 2930